Sierra Vista, AZ

6:54 PM MST on April 26, 2017 (GMT -0700)
Sierra Vista Municipal-Libby Army Air Field

Weather History for KFHU - October, 2012

Change the Weather History Date:

Monday, October 8, 2012

  Actual Average Record
Temperature  
Mean Temperature 70 °F -  
Max Temperature 84 °F 80 °F 89 °F (1996)
Min Temperature 57 °F 58 °F 44 °F (2011)
Cooling Degree Days 6    
Growing Degree Days 20 (Base 50)    
Moisture  
Dew Point 30 °F    
Average Humidity 23    
Maximum Humidity 36    
Minimum Humidity 12    
Precipitation  
Precipitation 0.00 in - - ()
Sea Level Pressure  
Sea Level Pressure 29.94 in    
Wind  
Wind Speed 4 mph (SW)    
Max Wind Speed 17 mph    
Max Gust Speed 23 mph    
Visibility 10 miles    
Events      
Averages and records for this station are not official NWS values.
T = Trace of Precipitation, MM = Missing Value Source: NWS Daily Summary

Daily Weather History Graph

Daily Weather History Graph

Search for Another Location

Airport or City:

Trip Planner

Search our weather history database for the weather conditions in past years. The results will help you decide how hot, cold, wet, or windy it might be!

Date:

Astronomy

Oct. 08, 2012 Rise Set
Actual Time 6:20 AM MST 5:56 PM MST
Civil Twilight 5:55 AM MST 6:21 PM MST
Nautical Twilight 5:27 AM MST 6:49 PM MST
Astronomical Twilight 4:59 AM MST 7:17 PM MST
Moon No Moon Rise 1:26 PM MST (10/8)
Length of Visible Light 12h 25m
Length of Day
11h 36m
Last Quarter, 45% of the Moon is Illuminated
Oct 8
Last Quarter
Oct 15
New
Oct 21
First Quarter
Oct 29
Full
Nov 6
Last Quarter

Hourly Weather History & Observations

Time (MST) Temp. Dew Point Humidity Pressure Visibility Wind Dir Wind Speed Gust Speed Precip Events Conditions
12:56 AM 62.1 °F 30.0 °F 30% 29.94 in 10.0 mi Calm Calm - N/A   Clear
1:56 AM 60.1 °F 30.9 °F 33% 29.94 in 10.0 mi West 3.5 mph - N/A   Clear
2:56 AM 60.1 °F 30.9 °F 33% 29.92 in 10.0 mi South 6.9 mph - N/A   Clear
3:56 AM - - N/A% - 10.0 mi SSE 3.5 mph - N/A   Unknown
4:56 AM 57.9 °F 30.9 °F 36% 29.94 in 10.0 mi Calm Calm - N/A   Clear
5:56 AM 59.0 °F 32.0 °F 36% 29.96 in 10.0 mi SSW 4.6 mph - N/A   Clear
6:56 AM 61.0 °F 33.1 °F 35% 29.99 in 10.0 mi SW 3.5 mph - N/A   Clear
7:56 AM 66.9 °F 32.0 °F 27% 29.99 in 10.0 mi Calm Calm - N/A   Clear
8:56 AM 73.0 °F 33.1 °F 23% 29.99 in 10.0 mi Calm Calm - N/A   Clear
9:56 AM 75.0 °F 33.1 °F 22% 29.98 in 10.0 mi Calm Calm - N/A   Clear
10:56 AM 79.0 °F 33.1 °F 19% 29.96 in 10.0 mi East 5.8 mph - N/A   Clear
11:56 AM 78.1 °F 33.1 °F 19% 29.95 in 10.0 mi Calm Calm - N/A   Clear
12:56 PM 82.0 °F 32.0 °F 16% 29.92 in 10.0 mi SSW 6.9 mph - N/A   Clear
1:56 PM 82.9 °F 30.0 °F 15% 29.90 in 10.0 mi Variable 5.8 mph - N/A   Clear
2:56 PM 84.0 °F 25.0 °F 12% 29.89 in 10.0 mi West 17.3 mph 23.0 mph N/A   Clear
3:56 PM 82.9 °F 26.1 °F 13% 29.89 in 10.0 mi West 13.8 mph - N/A   Clear
4:56 PM 81.0 °F 26.1 °F 13% 29.89 in 10.0 mi West 13.8 mph - N/A   Clear
5:56 PM 75.0 °F 25.0 °F 16% 29.92 in 10.0 mi WSW 9.2 mph - N/A   Clear
6:56 PM 73.0 °F 25.0 °F 17% 29.93 in 10.0 mi SW 10.4 mph - N/A   Clear
7:56 PM 73.0 °F 28.0 °F 19% 29.93 in 10.0 mi WSW 12.7 mph - N/A   Clear
8:56 PM 71.1 °F 30.9 °F 23% 29.94 in 10.0 mi WSW 11.5 mph - N/A   Clear
9:56 PM 72.0 °F 35.1 °F 26% 29.94 in 10.0 mi WSW 10.4 mph - N/A   Clear
10:56 PM 64.9 °F 33.1 °F 31% 29.96 in 10.0 mi NW 3.5 mph - N/A   Clear
11:56 PM 66.9 °F 30.9 °F 26% 29.95 in 10.0 mi Calm Calm - N/A   Clear